TimeEDT,TemperatureF,Dew PointF,Humidity,Sea Level PressureIn,VisibilityMPH,Wind Direction,Wind SpeedMPH,Gust SpeedMPH,PrecipitationIn,Events,Conditions,WindDirDegrees,DateUTC
12:54 AM,62.1,53.1,72,30.04,10.0,SSE,6.9,-,N/A,,Clear,150,2013-05-01 04:54:00
1:54 AM,60.1,52.0,75,30.05,10.0,SSE,5.8,-,N/A,,Clear,160,2013-05-01 05:54:00
2:54 AM,57.9,51.1,78,30.05,10.0,SSE,6.9,-,N/A,,Clear,160,2013-05-01 06:54:00
3:54 AM,57.0,51.1,81,30.07,10.0,South,3.5,-,N/A,,Clear,170,2013-05-01 07:54:00
4:54 AM,55.9,51.1,84,30.08,10.0,SSE,4.6,-,N/A,,Clear,150,2013-05-01 08:54:00
5:54 AM,54.0,50.0,86,30.10,10.0,Calm,Calm,-,N/A,,Clear,0,2013-05-01 09:54:00
6:54 AM,53.1,50.0,89,30.13,10.0,Calm,Calm,-,N/A,,Clear,0,2013-05-01 10:54:00
7:54 AM,57.0,54.0,89,30.15,10.0,Calm,Calm,-,N/A,,Clear,0,2013-05-01 11:54:00
8:54 AM,64.0,55.0,73,30.17,10.0,Calm,Calm,-,N/A,,Clear,0,2013-05-01 12:54:00
9:54 AM,69.1,57.0,65,30.17,10.0,SSE,4.6,-,N/A,,Clear,160,2013-05-01 13:54:00
10:54 AM,73.0,57.0,57,30.17,10.0,SSE,4.6,-,N/A,,Clear,150,2013-05-01 14:54:00
11:54 AM,75.9,53.1,45,30.18,10.0,Variable,4.6,-,N/A,,Clear,0,2013-05-01 15:54:00
12:54 PM,79.0,55.9,45,30.17,10.0,SSE,4.6,-,N/A,,Clear,160,2013-05-01 16:54:00
1:54 PM,80.1,55.0,42,30.17,10.0,Variable,4.6,-,N/A,,Scattered Clouds,0,2013-05-01 17:54:00
2:54 PM,81.0,57.0,44,30.17,10.0,SSE,9.2,-,N/A,,Partly Cloudy,160,2013-05-01 18:54:00
3:54 PM,81.0,55.0,41,30.16,10.0,SE,9.2,16.1,N/A,,Partly Cloudy,140,2013-05-01 19:54:00
4:54 PM,81.0,55.0,41,30.17,10.0,SSE,11.5,16.1,N/A,,Scattered Clouds,150,2013-05-01 20:54:00
5:54 PM,80.1,55.9,43,30.17,10.0,SE,9.2,-,N/A,,Partly Cloudy,130,2013-05-01 21:54:00
6:54 PM,80.1,55.9,43,30.16,10.0,ESE,9.2,-,N/A,,Clear,120,2013-05-01 22:54:00
7:54 PM,77.0,55.9,48,30.16,10.0,ESE,6.9,-,N/A,,Clear,120,2013-05-01 23:54:00
8:54 PM,72.0,55.9,57,30.17,10.0,ESE,5.8,-,N/A,,Clear,120,2013-05-02 00:54:00
9:54 PM,69.1,55.9,63,30.18,10.0,East,3.5,-,N/A,,Clear,100,2013-05-02 01:54:00
10:54 PM,66.9,55.9,68,30.18,10.0,East,4.6,-,N/A,,Clear,100,2013-05-02 02:54:00
11:54 PM,64.9,55.0,70,30.18,10.0,East,4.6,-,N/A,,Clear,100,2013-05-02 03:54:00